WI3X Weather Reports


time (UTC)temp
C
wind
direction
speed
KPH
gust
KPH
rain 1hr
cm
rain 24hr
cm
rain mn
cm
humidity
%
barometer
mb
20260510020003 12 0 0.0 0.0 0.00 0.43 0.43 88 1009.9
20260510015004 12 121 0.0 3.2 0.00 0.43 0.43 87 1009.7
20260510014003 12 0 0.0 0.0 0.00 0.43 0.43 86 1009.6
20260510013003 12 0 0.0 0.0 0.00 0.43 0.43 86 1009.6
20260510012003 12 121 0.0 3.2 0.00 0.43 0.43 86 1009.5
20260510011003 13 0 0.0 0.0 0.00 0.43 0.43 85 1009.4
20260510010003 13 121 0.0 1.6 0.00 0.43 0.43 84 1009.2
20260510005003 13 121 0.0 3.2 0.00 0.43 0.43 83 1009.2
20260510004003 14 0 0.0 0.0 0.00 0.43 0.43 82 1009.3
20260510003003 14 121 0.0 1.6 0.00 0.43 0.43 80 1009.2
20260510002003 15 121 0.0 1.6 0.00 0.43 0.43 79 1009.0
20260510001003 15 121 1.6 3.2 0.00 0.43 0.43 78 1008.8
20260510000003 15 121 3.2 4.8 0.00 0.43 0.43 77 1008.8
20260509235003 16 121 1.6 4.8 0.00 0.43 0.43 76 1008.8
20260509234003 16 120 3.2 8.0 0.00 0.43 0.43 75 1008.7
20260509233003 16 123 3.2 6.4 0.00 0.43 0.43 75 1008.6
20260509232024 16 142 4.8 8.0 0.00 0.43 0.43 74 1008.5
20260509231003 16 161 6.4 14.5 0.00 0.43 0.43 72 1008.6
20260509230003 16 139 4.8 11.3 0.00 0.43 0.43 72 1008.6
20260509225004 16 161 3.2 8.0 0.00 0.43 0.43 74 1008.6
20260509224004 16 136 4.8 8.0 0.00 0.43 0.43 73 1008.5
20260509223004 16 142 6.4 12.9 0.00 0.43 0.43 74 1008.7
20260509222004 16 167 4.8 9.7 0.00 0.43 0.43 73 1008.6
20260509221004 16 168 4.8 12.9 0.00 0.43 0.43 73 1008.6
20260509220004 16 199 4.8 11.3 0.00 0.43 0.43 73 1008.7
20260509215025 16 165 4.8 11.3 0.00 0.43 0.43 73 1008.9
20260509214025 16 150 6.4 9.7 0.00 0.43 0.43 73 1008.9
20260509213004 16 124 4.8 11.3 0.00 0.43 0.43 75 1009.0
20260509212004 16 310 1.6 6.4 0.00 0.43 0.43 77 1009.2
20260509211004 16 304 0.0 1.6 0.00 0.43 0.43 78 1009.4
20260509210004 16 304 0.0 1.6 0.00 0.43 0.43 78 1009.4
20260509205025 16 300 3.2 8.0 0.00 0.43 0.43 80 1009.5
20260509204004 15 224 1.6 6.4 0.00 0.43 0.43 79 1009.4
20260509203004 15 161 0.0 8.0 0.00 0.43 0.43 78 1009.3
20260509202004 15 0 0.0 0.0 0.00 0.43 0.43 79 1009.1
20260509201004 15 262 0.0 3.2 0.00 0.43 0.43 79 1009.5
20260509200004 15 263 1.6 6.4 0.00 0.43 0.43 78 1009.6
20260509195004 15 225 1.6 9.7 0.00 0.43 0.43 79 1009.7
20260509194025 15 152 1.6 6.4 0.00 0.43 0.43 76 1009.8
20260509193004 16 204 4.8 9.7 0.00 0.43 0.43 76 1009.8
20260509192004 15 171 3.2 6.4 0.00 0.43 0.43 82 1010.0
20260509191025 15 214 3.2 11.3 0.00 0.43 0.43 83 1010.2
20260509190004 15 163 1.6 8.0 0.00 0.43 0.43 84 1010.3
20260509185005 14 158 8.0 16.1 0.00 0.43 0.43 84 1010.3
20260509184004 14 139 6.4 14.5 0.03 0.43 0.43 88 1010.3
20260509183004 13 129 6.4 16.1 0.03 0.43 0.43 88 1010.5
20260509182005 13 107 3.2 12.9 0.03 0.43 0.43 91 1010.4
20260509181005 13 129 3.2 11.3 0.03 0.43 0.43 89 1010.6
20260509180004 12 161 4.8 11.3 0.03 0.43 0.43 88 1010.7
20260509175025 12 190 3.2 6.4 0.03 0.43 0.43 88 1010.8
20260509174004 12 176 4.8 8.0 0.00 0.41 0.41 89 1010.8
20260509173025 12 153 1.6 6.4 0.00 0.41 0.41 88 1010.8
20260509172004 12 152 3.2 8.0 0.03 0.41 0.41 90 1010.9
20260509171025 12 141 4.8 9.7 0.03 0.41 0.41 89 1011.0
20260509170004 12 121 3.2 8.0 0.08 0.41 0.41 89 1011.0
20260509165004 12 95 4.8 9.7 0.13 0.41 0.41 89 1010.8
20260509164004 12 39 3.2 6.4 0.20 0.41 0.41 88 1010.9
20260509163004 12 17 1.6 4.8 0.28 0.41 0.41 89 1010.8
20260509162004 12 356 1.6 6.4 0.28 0.38 0.38 88 1010.6
20260509161005 12 331 3.2 6.4 0.28 0.38 0.38 89 1010.7
20260509160025 12 262 1.6 4.8 0.25 0.33 0.33 88 1011.0
20260509155004 12 231 1.6 3.2 0.23 0.28 0.28 88 1011.5
20260509154004 12 213 3.2 8.0 0.20 0.20 0.20 86 1011.9
20260509153025 12 201 4.8 9.7 0.13 0.13 0.13 85 1011.9
20260509152004 12 191 8.0 12.9 0.10 0.10 0.10 84 1011.7
20260509151025 13 190 3.2 8.0 0.10 0.10 0.10 85 1011.7
20260509150004 13 186 4.8 11.3 0.08 0.08 0.08 83 1011.7
20260509145004 13 190 8.0 14.5 0.05 0.05 0.05 80 1011.7
20260509144004 13 205 6.4 12.9 0.00 0.00 0.00 77 1011.6
20260509143025 13 213 3.2 9.7 0.00 0.00 0.00 80 1011.5
20260509142004 13 213 4.8 8.0 0.00 0.00 0.00 80 1011.3
20260509141004 13 196 3.2 9.7 0.00 0.00 0.00 80 1011.2
20260509140005 13 184 3.2 4.8 0.00 0.00 0.00 80 1011.2
20260509135004 13 183 1.6 4.8 0.00 0.00 0.00 82 1011.1
20260509134004 13 183 1.6 4.8 0.00 0.00 0.00 81 1011.0
20260509133004 13 181 0.0 6.4 0.00 0.00 0.00 82 1010.9
20260509132004 12 134 3.2 6.4 0.00 0.00 0.00 82 1010.9
20260509131004 12 100 0.0 3.2 0.00 0.00 0.00 81 1010.7
20260509130025 12 0 0.0 0.0 0.00 0.00 0.00 82 1010.8
20260509125025 12 102 0.0 1.6 0.00 0.00 0.00 82 1010.9
20260509124025 12 103 0.0 1.6 0.00 0.00 0.00 81 1010.8
20260509123004 12 103 1.6 6.4 0.00 0.00 0.00 82 1010.9
20260509122025 12 103 3.2 4.8 0.00 0.00 0.00 81 1010.9
20260509121005 12 113 1.6 4.8 0.00 0.00 0.00 83 1010.6
20260509120004 11 94 4.8 11.3 0.00 0.00 0.00 82 1010.9
20260509115004 11 35 1.6 6.4 0.00 0.00 0.00 81 1010.6
20260509114004 11 34 1.6 4.8 0.00 0.00 0.00 82 1010.5
20260509113005 11 34 1.6 4.8 0.00 0.00 0.00 82 1010.5
20260509112025 11 34 0.0 3.2 0.00 0.00 0.00 82 1010.5
20260509111004 11 34 1.6 3.2 0.00 0.00 0.00 82 1010.5
20260509110005 11 34 1.6 6.4 0.00 0.00 0.00 81 1010.5
20260509105004 11 34 0.0 4.8 0.00 0.00 0.00 82 1010.4
20260509104004 11 0 0.0 0.0 0.00 0.00 0.00 82 1010.3
20260509103004 11 34 1.6 4.8 0.00 0.00 0.00 82 1010.3
20260509102025 11 34 1.6 3.2 0.00 0.00 0.00 81 1010.1
20260509101004 11 39 3.2 8.0 0.00 0.00 0.00 81 1010.2
20260509100025 11 56 3.2 8.0 0.00 0.00 0.00 81 1009.8
20260509095004 10 73 1.6 6.4 0.00 0.00 0.00 81 1009.9
20260509094004 10 0 0.0 0.0 0.00 0.00 0.00 81 1010.3
20260509093004 10 0 0.0 0.0 0.00 0.00 0.00 80 1010.2
20260509092005 10 0 0.0 0.0 0.00 0.00 0.00 80 1010.2
20260509091025 10 75 0.0 3.2 0.00 0.00 0.00 80 1010.2
20260509090004 10 75 3.2 6.4 0.00 0.00 0.00 80 1010.2
20260509085004 10 73 3.2 6.4 0.00 0.00 0.00 80 1010.3
20260509084005 10 56 3.2 8.0 0.00 0.00 0.00 80 1010.4
20260509083004 10 31 1.6 4.8 0.00 0.00 0.00 81 1010.5
20260509082025 10 31 3.2 4.8 0.00 0.00 0.00 80 1010.6
20260509081004 10 31 1.6 4.8 0.00 0.00 0.00 81 1010.7
20260509080025 10 30 1.6 4.8 0.00 0.00 0.00 81 1010.7
20260509075004 10 28 1.6 4.8 0.00 0.00 0.00 81 1010.7
20260509074004 10 28 1.6 4.8 0.00 0.00 0.00 81 1010.7
20260509073004 10 27 0.0 3.2 0.00 0.00 0.00 80 1010.9
20260509072004 10 27 0.0 3.2 0.00 0.00 0.00 79 1011.0
20260509071005 11 27 1.6 3.2 0.00 0.00 0.00 77 1011.0
20260509070004 11 27 1.6 4.8 0.00 0.00 0.00 77 1011.0
20260509065004 11 27 3.2 4.8 0.00 0.00 0.00 76 1010.9
20260509064004 11 27 1.6 4.8 0.00 0.00 0.00 74 1010.9
20260509063004 11 27 0.0 3.2 0.00 0.00 0.00 75 1010.9
20260509062025 12 27 1.6 6.4 0.00 0.00 0.00 74 1010.9
20260509061004 12 28 4.8 8.0 0.00 0.00 0.00 75 1011.0
20260509060004 12 34 6.4 11.3 0.00 0.00 0.00 74 1011.1
20260509055025 12 53 1.6 6.4 0.00 0.00 0.00 74 1011.1
20260509054005 12 48 3.2 6.4 0.00 0.00 0.00 74 1011.2
20260509053004 12 47 3.2 6.4 0.00 0.00 0.00 73 1011.3
20260509052004 12 49 3.2 8.0 0.00 0.00 0.00 74 1011.5
20260509051004 12 62 1.6 6.4 0.00 0.00 0.00 75 1011.7
20260509050004 12 67 1.6 4.8 0.00 0.00 0.00 74 1011.6
20260509045025 12 66 3.2 6.4 0.00 0.00 0.00 74 1011.4
20260509044025 12 66 1.6 6.4 0.00 0.00 0.00 73 1011.7
20260509043004 12 65 3.2 6.4 0.00 0.00 0.00 73 1011.6
20260509042026 12 63 3.2 8.0 0.00 0.00 0.00 72 1011.6
20260509041004 12 61 3.2 6.4 0.00 0.00 0.00 71 1011.8
20260509040004 12 62 3.2 4.8 0.00 0.00 0.00 71 1011.7
20260509035025 12 63 0.0 3.2 0.00 0.00 0.00 69 1011.8
20260509034004 13 63 0.0 1.6 0.00 0.00 0.00 69 1012.2
20260509033003 13 76 3.2 6.4 0.00 0.00 0.00 70 1011.9
20260509032004 13 132 1.6 6.4 0.00 0.00 0.00 69 1012.2
20260509031005 13 153 0.0 3.2 0.00 0.00 0.00 68 1012.2
20260509030004 13 153 1.6 6.4 0.00 0.00 0.00 67 1012.2
20260509025003 13 143 6.4 17.7 0.00 0.00 0.00 68 1012.2
20260509024025 12 78 1.6 4.8 0.00 0.00 0.00 70 1011.7
20260509023004 12 74 3.2 6.4 0.00 0.00 0.00 71 1011.6
20260509022003 13 27 3.2 6.4 0.00 0.00 0.00 72 1011.5
20260509021004 13 304 0.0 1.6 0.00 0.00 0.00 69 1011.8